Waarnemingen

Advertentie
Mijn weer
St-Nazaire, Frankrijk (7217): temperatuur & dauwpunt: 20.04.2018 11:00:00 - 26.04.2018 11:00:00 (CEST)St-Nazaire, Frankrijk (7217): temperatuur 5cm: 20.04.2018 11:00:00 - 26.04.2018 11:00:00 (CEST)St-Nazaire, Frankrijk (7217): temperatuur -20cm: 20.04.2018 11:00:00 - 26.04.2018 11:00:00 (CEST)St-Nazaire, Frankrijk (7217): windsnelheid & windstoten: 20.04.2018 11:00:00 - 26.04.2018 11:00:00 (CEST)St-Nazaire, Frankrijk (7217): windrichting: 20.04.2018 11:00:00 - 26.04.2018 11:00:00 (CEST)St-Nazaire, Frankrijk (7217): luchtdruk: 20.04.2018 11:00:00 - 26.04.2018 11:00:00 (CEST)St-Nazaire, Frankrijk (7217): zicht: 20.04.2018 11:00:00 - 26.04.2018 11:00:00 (CEST)St-Nazaire, Frankrijk (7217): neerslag: 20.04.2018 11:00:00 - 26.04.2018 11:00:00 (CEST)
Datum & Tijd tt [°C] td [°C] tt 5cm [°C] tt -20cm [°C] ff [km/u] ff [kn] fx [km/u] fx [kn] dd ppp [hPa] vv [km] rr [mm]
26.04.2018 11:00:00 13,5 7,3 14,3 15,2 7 4 19 11 WNW 1023,6 34 0,0
26.04.2018 10:00:00 12,6 8,3 14,2 15,2 9 5 18 10 W 1023,6 39 0,0
26.04.2018 09:00:00 11,4 8,4 9,2 15,3 8 4 14 7 W 1023,3 49 0,0
26.04.2018 08:00:00 10,1 8,5 8,6 15,5 7 4 16 9 WZW 1023,3 49 0,0
26.04.2018 07:00:00 9,6 8,2 7,6 15,5 11 6 17 9 W 1023,0 17 0,0
26.04.2018 06:00:00 9,3 7,7 0,9 15,6 11 6 18 10 W 1023,0 11 0,2
26.04.2018 05:00:00 6,9 5,7 1,0 15,7 4 2 6 3 WZW 1022,9 16 0,0
26.04.2018 04:00:00 7,2 5,7 2,4 15,7 3 2 8 4 WZW 1023,3 19 0,0
26.04.2018 03:00:00 9,8 7,6 7,0 15,8 6 4 14 7 WNW 1023,4 20 0,0
26.04.2018 02:00:00 9,3 6,9 7,7 15,8 8 5 18 10 W 1023,5 39 0,0
26.04.2018 01:00:00 9,8 7,0 8,0 15,9 9 5 18 10 W 1023,5 44 0,0
26.04.2018 00:00:00 11,0 6,9 10,0 15,9 16 8 30 16 W 1023,2 53 0,0
25.04.2018 23:00:00 11,6 6,5 10,2 15,8 20 11 29 16 W 1022,7 54 0,0
25.04.2018 22:00:00 11,8 7,7 10,8 15,8 18 10 37 20 W 1022,2 44 0,0
25.04.2018 21:00:00 12,6 7,7 12,0 15,7 24 13 50 27 W 1021,5 37 0,0
25.04.2018 20:00:00 13,6 8,0 14,8 15,6 27 15 47 25 W 1020,8 17 0,0
25.04.2018 19:00:00 14,3 7,1 16,7 15,5 31 17 46 25 W 1020,6 13 0,0
25.04.2018 18:00:00 15,1 6,1 16,5 15,5 27 15 48 26 W 1020,5 13 0,0
25.04.2018 17:00:00 15,7 6,7 18,1 15,4 29 15 46 25 W 1020,4 16 0,0
25.04.2018 16:00:00 15,6 7,1 17,9 15,3 26 14 45 25 W 1020,7 18 0,0
25.04.2018 15:00:00 15,9 7,9 16,6 15,3 24 13 38 21 W 1020,6 21 0,0
25.04.2018 14:00:00 15,4 7,7 17,2 15,3 21 12 36 19 W 1020,6 43 0,0
25.04.2018 13:00:00 15,1 8,6 15,1 15,3 18 10 35 19 W 1020,4 43 0,0
25.04.2018 12:00:00 14,0 8,8 15,6 15,3 19 10 41 22 WNW 1020,0 49 0,0
25.04.2018 11:00:00 14,1 9,5 14,2 15,4 22 12 36 19 WNW 1019,0 23 0,0
25.04.2018 10:00:00 14,8 11,8 13,4 15,4 19 10 32 17 W 1018,3 60 0,2
25.04.2018 09:00:00 13,8 12,7 13,1 15,4 18 10 29 16 W 1018,0 6 0,2
25.04.2018 08:00:00 13,4 12,6 12,6 15,4 15 8 28 15 WZW 1017,4 13 0,0
25.04.2018 07:00:00 13,1 12,3 12,6 15,5 17 9 32 17 W 1017,0 9 0,0
25.04.2018 06:00:00 13,5 11,5 13,1 15,5 14 8 29 16 W 1016,9 18 0,0
25.04.2018 05:00:00 13,3 11,4 12,5 15,6 18 10 32 17 WZW 1016,6 57 0,0
25.04.2018 04:00:00 13,0 11,9 12,3 15,6 18 10 28 15 WZW 1017,0 42 0,0
25.04.2018 03:00:00 12,8 11,9 12,2 15,6 18 10 29 15 WZW 1017,3 11 0,0
25.04.2018 02:00:00 12,8 11,2 11,3 15,6 16 9 32 17 WZW 1017,6 39 0,0
25.04.2018 01:00:00 11,9 10,1 9,0 15,6 13 7 18 10 WZW 1017,4 48 0,0
25.04.2018 00:00:00 11,0 8,6 9,3 15,6 10 5 18 10 WZW 1017,7 51 0,0
24.04.2018 23:00:00 12,1 8,8 10,8 15,6 13 7 31 17 WZW 1018,1 47 0,0
24.04.2018 22:00:00 12,9 8,8 12,1 15,5 18 10 29 16 W 1018,0 60 0,0
24.04.2018 21:00:00 13,2 8,7 12,6 15,4 17 9 30 16 W 1017,6 60 0,0
24.04.2018 20:00:00 13,6 8,6 13,3 15,4 19 11 29 16 W 1017,5 47 0,0
24.04.2018 19:00:00 14,9 9,0 17,4 15,2 20 11 29 16 ZW 1017,8 29 0,0
24.04.2018 18:00:00 15,7 9,4 19,8 15,2 15 8 29 16 W 1018,3 22 0,0
24.04.2018 17:00:00 15,8 9,0 18,3 15,1 17 9 31 17 WZW 1018,8 19 0,0
24.04.2018 16:00:00 16,3 9,5 21,7 15,0 19 10 32 17 WZW 1019,6 19 0,0
24.04.2018 15:00:00 16,1 8,6 21,9 15,0 14 8 28 15 WZW 1019,9 21 0,0
24.04.2018 14:00:00 16,3 9,9 19,6 15,1 13 7 24 13 WZW 1020,2 20 0,0
24.04.2018 13:00:00 15,6 9,0 19,3 15,1 13 7 21 12 WNW 1021,1 53 0,0
24.04.2018 12:00:00 15,3 8,8 21,3 15,2 10 5 20 11 WNW 1021,3 60 0,0
24.04.2018 11:00:00 14,0 8,0 20,8 15,2 9 5 17 9 WNW 1021,3 29 0,0
24.04.2018 10:00:00 12,7 8,6 16,1 15,3 4 2 9 5 NNW 1021,3 20 0,0
24.04.2018 09:00:00 10,1 8,0 8,5 15,4 6 4 11 6 NNW 1021,5 17 0,0
24.04.2018 08:00:00 8,4 7,5 0,9 15,5 5 3 9 5 N 1021,1 12 0,0
24.04.2018 07:00:00 7,5 6,9 0,6 15,5 5 3 6 4 NNW 1020,6 8 0,0
24.04.2018 06:00:00 7,6 6,4 1,6 15,6 3 1 8 5 NNW 1020,8 11 0,0
24.04.2018 05:00:00 8,0 6,5 3,2 15,7 5 3 9 5 NNW 1021,1 20 0,0
24.04.2018 04:00:00 8,6 6,6 2,7 15,7 6 3 9 5 N 1021,3 25 0,0
24.04.2018 03:00:00 9,8 7,2 7,6 15,8 6 4 13 7 NNW 1021,4 45 0,0
24.04.2018 02:00:00 10,8 7,5 9,0 15,8 9 5 16 9 WNW 1021,5 50 0,0
24.04.2018 01:00:00 11,2 8,4 9,4 15,8 11 6 16 9 WNW 1021,9 51 0,0
24.04.2018 00:00:00 11,4 8,6 9,7 15,8 9 5 18 10 WNW 1022,0 45 0,0
23.04.2018 23:00:00 11,9 8,6 10,3 15,7 13 7 21 11 W 1022,0 46 0,0
23.04.2018 22:00:00 12,5 8,4 11,0 15,8 13 7 23 13 W 1021,6 57 0,0
23.04.2018 21:00:00 13,2 8,3 11,9 15,7 14 8 26 14 W 1021,1 60 0,0
23.04.2018 20:00:00 15,2 9,3 15,5 15,6 15 8 23 12 W 1020,8 53 0,0
23.04.2018 19:00:00 16,3 9,2 18,4 15,6 15 8 26 14 WNW 1020,7 59 0,0
23.04.2018 18:00:00 17,2 10,1 19,8 15,5 11 6 25 13 WNW 1020,7 44 0,0
23.04.2018 17:00:00 17,0 10,8 22,2 15,5 12 7 28 15 WNW 1020,8 55 0,0
23.04.2018 16:00:00 16,8 11,3 17,7 15,5 18 10 27 15 WNW 1021,1 60 0,0
23.04.2018 15:00:00 15,6 10,8 16,7 15,5 13 7 18 10 ZZW 1021,6 43 0,0
23.04.2018 14:00:00 15,2 11,2 16,7 15,5 10 5 19 11 Z 1021,5 14 0,0
23.04.2018 13:00:00 16,8 11,9 18,3 15,5 8 4 13 7 O 1021,4 19 0,0
23.04.2018 12:00:00 14,3 10,3 17,1 15,5 9 5 16 9 NO 1021,7 20 0,0
23.04.2018 11:00:00 13,5 10,7 15,0 15,6 11 6 22 12 NNO 1021,5 19 0,0
23.04.2018 10:00:00 14,1 11,1 14,3 15,6 10 5 15 8 NNO 1020,7 33 0,0
23.04.2018 09:00:00 12,9 10,4 11,6 15,7 7 4 12 7 N 1020,2 38 0,0
23.04.2018 08:00:00 12,1 10,3 11,0 15,8 7 4 10 5 N 1019,3 32 0,0
23.04.2018 07:00:00 12,0 10,6 10,6 15,8 6 3 14 7 WNW 1019,0 47 0,0
23.04.2018 06:00:00 11,8 10,5 10,2 15,9 6 4 18 10 WNW 1018,9 60 0,0
23.04.2018 05:00:00 11,9 11,0 8,5 16,0 11 6 18 10 WNW 1018,6 50 0,0
23.04.2018 04:00:00 10,2 9,6 5,3 16,0 8 4 11 6 W 1018,4 30 0,0
23.04.2018 03:00:00 11,3 10,5 8,1 16,0 8 4 13 7 W 1017,6 25 0,0
23.04.2018 02:00:00 11,2 10,4 6,1 16,0 9 5 13 7 WZW 1017,8 28 0,0
23.04.2018 01:00:00 10,6 9,2 7,5 16,0 9 5 11 6 WZW 1017,7 32 0,0
23.04.2018 00:00:00 11,7 10,4 9,2 16,0 8 4 12 6 WZW 1017,3 9 0,0
22.04.2018 23:00:00 12,8 11,0 11,6 16,0 10 6 21 12 W 1016,8 8 0,0
22.04.2018 22:00:00 13,8 11,8 12,9 15,9 15 8 23 13 W 1016,3 11 0,0
22.04.2018 21:00:00 14,3 12,2 13,6 15,8 15 8 21 11 WZW 1015,4 15 0,0
22.04.2018 20:00:00 15,7 13,0 16,2 15,8 12 6 20 11 ZW 1014,8 18 0,0
22.04.2018 19:00:00 16,0 12,5 16,8 15,7 14 8 24 13 WZW 1014,8 20 0,0
22.04.2018 18:00:00 16,6 13,3 18,1 15,6 15 8 29 16 WZW 1014,6 18 0,0
22.04.2018 17:00:00 16,0 12,9 18,9 15,5 23 12 34 18 ZZW 1014,6 20 0,0
22.04.2018 16:00:00 17,1 13,8 21,6 15,5 22 12 30 16 ZZW 1014,7 18 0,0
22.04.2018 15:00:00 17,2 13,7 20,9 15,5 11 6 27 15 ZZW 1014,0 19 0,0
22.04.2018 14:00:00 16,0 13,5 19,3 15,5 21 11 27 15 Z 1014,5 19 0,0
22.04.2018 13:00:00 16,6 14,1 19,2 15,5 9 5 24 13 ZW 1014,3 18 0,0
22.04.2018 12:00:00 15,5 13,0 16,8 15,6 18 10 26 14 ZW 1014,5 9 0,0
22.04.2018 11:00:00 15,3 13,8 16,6 15,7 14 8 27 15 ZZW 1013,7 10 0,0
22.04.2018 10:00:00 14,9 13,4 16,4 15,8 12 6 17 9 ZW 1013,3 12 0,0
22.04.2018 09:00:00 15,3 13,7 10,0 15,9 9 5 14 7 Z 1013,1 15 0,0
22.04.2018 08:00:00 11,5 9,6 6,6 15,9 3 2 5 3 O 1013,0 16 0,0
22.04.2018 07:00:00 11,4 9,3 6,5 16,1 6 3 8 4 ZO 1012,9 17 0,0
22.04.2018 06:00:00 11,1 10,0 5,3 16,1 4 2 9 5 Z 1012,9 15 0,0
22.04.2018 05:00:00 10,9 10,4 5,6 16,1 3 2 5 3 ZZO 1013,4 6 0,0
22.04.2018 04:00:00 12,1 11,6 5,7 16,2 0 0 4 2 N 1013,9 4,3 0,0
22.04.2018 03:00:00 12,1 11,5 5,6 16,3 3 1 4 2 OZO 1014,1 1,4 0,0
22.04.2018 02:00:00 12,6 11,7 5,8 16,3 2 1 4 2 OZO 1014,3 6 0,0
22.04.2018 01:00:00 11,8 10,2 6,1 16,3 0 0 4 2 N 1014,5 14 0,0
22.04.2018 00:00:00 11,9 9,8 6,9 16,3 0 0 4 2 N 1014,8 16 0,0
21.04.2018 23:00:00 15,6 10,6 8,0 16,2 3 1 8 5 NW 1015,0 20 0,0
21.04.2018 22:00:00 17,3 9,9 10,0 16,1 6 4 12 7 W 1015,3 29 0,0
21.04.2018 21:00:00 18,2 9,0 15,0 16,1 9 5 13 7 W 1015,3 34 0,0
21.04.2018 20:00:00 19,1 10,4 18,8 16,0 10 6 22 12 ZZW 1015,6 20 0,0
21.04.2018 19:00:00 21,0 11,3 22,7 15,8 17 9 23 12 ZZW 1015,9 19 0,0
21.04.2018 18:00:00 22,4 12,9 26,3 15,7 13 7 21 12 ZZW 1015,7 19 0,0
21.04.2018 17:00:00 22,2 13,0 26,1 15,6 16 8 28 15 ZZW 1016,5 20 0,0
21.04.2018 16:00:00 22,3 13,6 26,6 15,5 21 12 29 16 ZZW 1017,1 20 0,0
21.04.2018 15:00:00 22,1 14,5 26,4 15,5 24 13 36 19 ZZW 1017,4 18 0,0
21.04.2018 14:00:00 25,2 14,3 29,4 15,4 9 5 18 10 Z 1017,4 14 0,0
21.04.2018 13:00:00 24,4 16,1 31,1 15,5 10 6 18 10 ZZO 1018,2 19 0,0
21.04.2018 12:00:00 22,6 15,9 20,1 15,5 9 5 15 8 O 1018,3 33 0,0
21.04.2018 11:00:00 20,5 16,1 18,9 15,6 10 5 16 8 O 1018,6 12 0,2
21.04.2018 10:00:00 19,3 15,0 18,9 15,6 7 4 11 6 O 1018,6 18 0,0
21.04.2018 09:00:00 17,5 14,6 12,3 15,7 5 3 9 5 O 1018,7 16 0,0
21.04.2018 08:00:00 14,5 12,4 8,0 15,8 3 2 8 5 O 1018,7 18 0,0
21.04.2018 07:00:00 14,6 12,3 7,9 15,8 4 2 11 6 ONO 1018,3 19 0,0
21.04.2018 06:00:00 14,2 12,2 8,3 15,9 10 6 14 8 ONO 1018,3 15 0,0
21.04.2018 05:00:00 13,9 11,9 8,8 15,9 7 4 10 5 NO 1018,8 16 0,0
21.04.2018 04:00:00 12,9 11,3 8,8 15,9 3 2 8 4 NO 1019,0 16 0,0
21.04.2018 03:00:00 13,8 11,5 9,8 15,9 5 3 9 5 NNO 1019,5 14 0,0
21.04.2018 02:00:00 16,1 12,3 10,4 15,9 6 3 11 6 N 1019,9 29 0,0
21.04.2018 01:00:00 17,5 12,2 12,5 15,9 7 4 16 9 NW 1020,2 38 0,0
21.04.2018 00:00:00 18,0 12,2 13,2 15,8 4 2 11 6 NNW 1020,3 38 0,0
20.04.2018 23:00:00 19,5 13,2 15,6 15,7 6 3 13 7 NW 1020,8 35 0,0
20.04.2018 22:00:00 20,1 14,0 17,9 15,6 10 5 13 7 NW 1020,7 39 0,0
20.04.2018 21:00:00 22,7 14,5 18,8 15,5 7 4 10 6 NW 1020,4 20 0,0
20.04.2018 20:00:00 23,1 13,8 23,3 15,4 2 1 6 3 Z 1020,3 19 0,0
20.04.2018 19:00:00 23,2 11,9 26,7 15,2 6 3 11 6 Z 1020,7 37 0,0
20.04.2018 18:00:00 23,4 10,8 27,3 15,1 10 6 19 11 ZZW 1020,9 13 0,0
20.04.2018 17:00:00 23,6 11,3 28,7 15,0 13 7 18 10 Z 1021,4 19 0,0
20.04.2018 16:00:00 25,0 12,9 31,7 14,8 10 5 21 11 Z 1021,7 19 0,0
20.04.2018 15:00:00 26,1 12,5 31,7 14,8 13 7 20 11 O 1022,1 20 0,0
20.04.2018 14:00:00 25,6 11,4 32,1 14,8 7 4 14 7 OZO 1022,5 37 0,0
20.04.2018 13:00:00 24,7 10,9 31,8 14,8 9 5 14 8 OZO 1022,8 47 0,0
20.04.2018 12:00:00 23,8 13,6 29,6 14,8 7 4 12 6 OZO 1023,0 36 0,0
20.04.2018 11:00:00 22,3 12,5 26,8 14,9 5 3 9 5 O 1022,9 17 0,0

tt = temperatuur
td = dauwpunt
tt 5cm = temperatuur 5cm
tt -20cm = temperatuur -20cm
ff = windsnelheid
fx = windstoten
dd = windrichting
ppp = luchtdruk
vv = zicht
rr = neerslag

Weerstations in de omgeving